YZ-1 R/B, 43210

Orbit data source: Space-Track

YZ-1 R/B, 43210 is space debris originally from a launch on Mon, 12 Feb 2018 UTC launched from the Xichang Space Center, China (XSC). Debris objects in space refer to the collection of defunct objects orbiting the Earth. Examples of debris include non-operational satellites, rocket bodies, and fragments generated from explosions, collisions, or faulty payload assembly.

Loading next visibility...
Identifier
43210, 2018-018D
Orbit
Active
Last TLE update
3 days ago
Origin
Manufacturer
CALT
Mission
Spacecraft
Bus & Motor
YZ-1, Unknown motor
Mass
~2,075 kg wet, ~2,075 kg dry
Launch date (UTC)
2018-02-12 (7 years ago)
Launch vehicle
Unknown
Launch site
Xichang Space Center, China (XSC)
Object type
Payload
Rocket body
Debris
Shape & HBR
Double Cone, 2.0 m
Radar Cross Section
5.890 m², Large (>1 m²)

Expand to show TLE details & history

TLE from 3 days ago
0 YZ-1 R/B
1 43210U 18018D   25197.18162866 -.00000023  00000-0  00000-0 0  9996
2 43210  56.1289  81.2930 0037618  99.7863 260.7036  1.79055430 48542
Epoch: 2025-07-16T04:21Z
TLE epoch observation values (Epoch: 2025-07-16T04:21:32.716Z)
Latitude
-0.00002°
Longitude
81.66072°
Altitude
22,286.745 km
Speed
3.728 km/s
True Right ascension
05h 25m 15s
True Declination
0° 00' 00"
Sunlit
Object was in daylight at epoch
Visualization orbit readout
Latitude
-53.55631°
Longitude
-33.33573°
Altitude
22,386.508 km
Speed
3.717 km/s
Apparent Right ascension
21h 46m 57s
Apparent Declination
-65° 50' 09"
Sunlit
Object is in daylight
Visualization observer readout
Local Sidereal Time
21:41:02
Azimuth
179.37° S
Elevation
-15.758°
Doppler factor
1
Orbital elements
Apogee altitude
22,376.44 km
Perigee altitude
22,160.913 km
Semi-major axis
28,646.813 km
Eccentricity
0.00376
Inclination
56.1289°
RAAN
81.293°
Arg. of periapsis
99.7863°
True anomaly
260.27852°
Mean anomaly
260.7036°
Eccentric anomaly
260.49103°
Mean motion
0.44764 °/min
Orbital period
804.22 mins
BSTAR
0
Loading maneuver chart data...
Loading SW <> Apogee altitude chart data...
Loading historical data...
Loading historical data...
Loading historical data...
Loading historical data...
Loading historical data...
Loading historical data...
Loading historical data...
Other satellites on launch #18 in the year 2018 (2018-02-12 UTC)
|